Terug naar catalogus

STARLINK-35279

ActiefCommunicatieVLEO
NORAD 66069·PAYLOAD·🇺🇸 United States

Gelanceerd Oct 19, 2025 vanaf Cape Canaveral Space Force Station

Loading…

Volgende Passages (komende 24 uur)

TLE

VersSource: CelesTrak SupGP

Epoch: Sep 14, 2026, 15:21 UTC

1 66069C 25235M   26257.64006944 -.00031903  00000+0 -94230-3 0  2574
2 66069  53.1601  86.7724 0001200  88.7695 230.4800 15.34416188    14

Volg STARLINK-35279 in realtime met AllMySat

Download on the App Store